[[{"header":{"parameterUnit":"m.s-1","parameterCategory":1,"la1":30.2991,"la2":30.254,"lo1":-89.0895,"lo2":-89.0444,"dy":0.0017,"dx":0.0017,"nx":28,"ny":28,"refTime":"2024-10-20T21:00:00:Z","depth":0,"parameterNumber":2,"parameterNumberName":"U-component_of_WINDS"},"data":[0,0,0,0,0,0,0,0,0,0,0,0,0,0,0,0,0,0,0,0,0,0,0,0,0,0,0,0,0,0,0,0,0,0,0,0,0,0,0,0,0,0,0,0,0,0,0,0,0,0,0,0,0,0,0,0,0,0,-1.818,-1.818,0,-1.8118,-1.8117,-1.8116,-1.8019,-1.8018,-1.8016,-1.8014,-1.7951,-1.7951,-1.7951,0,0,0,0,0,0,0,0,0,0,0,0,0,-1.8218,-1.8218,-1.8181,-1.818,-1.8179,-1.8118,-1.8117,-1.8116,-1.802,-1.8018,-1.8015,-1.8013,-1.7952,-1.7951,-1.7951,0,0,0,0,0,0,0,0,0,0,0,0,0,-1.8183,-1.8218,-1.8181,-1.8123,-1.8118,-1.8118,-1.8117,-1.8116,-1.802,-1.8017,-1.8015,-1.8012,-1.7952,-1.7951,-1.7951,-1.8003,0,0,-1.7951,-1.7951,0,0,0,0,0,0,0,0,-1.8186,-1.8182,-1.8133,-1.8127,-1.8121,-1.8074,-1.8107,-1.8078,-1.8021,-1.8057,-1.8014,-1.8011,-1.7994,-1.7991,-1.7985,-1.8,-1.7998,-1.7951,-1.7951,-1.7951,-1.7951,0,0,0,0,0,0,0,-1.8188,-1.8184,-1.8156,-1.8132,-1.8125,-1.8101,-1.8093,-1.8101,-1.8041,-1.8054,-1.8047,-1.804,-1.7991,-1.7985,-1.7982,-1.7997,-1.7951,-1.7951,-1.7951,-1.7951,-1.8053,-1.8056,0,0,0,0,0,0,-1.8199,-1.8187,-1.8158,-1.8154,-1.8147,-1.8103,-1.8094,-1.8091,-1.8041,-1.8031,-1.8043,-1.8036,-1.7986,-1.7983,-1.798,-1.8038,-1.7951,-1.7951,-1.7951,-1.805,-1.8054,-1.8057,0,0,0,0,0,0,-1.82,-1.8197,-1.816,-1.8168,-1.8162,-1.8105,-1.8103,-1.8092,-1.8086,-1.8032,-1.8021,-1.8048,-1.7984,-1.798,-1.7998,-1.8035,-1.7951,-1.7951,-1.8047,-1.8051,-1.8055,-1.8156,0,0,0,0,0,0,-1.8201,-1.8198,-1.8217,-1.817,-1.8162,-1.818,-1.8105,-1.8092,-1.8086,-1.8077,-1.8034,-1.8025,-1.7982,-1.7999,-1.7998,-1.8033,-1.7951,-1.8043,-1.8049,-1.8054,-1.8149,-1.8163,-1.8175,0,0,0,0,0,-1.8203,-1.8248,-1.8218,-1.8215,-1.8184,-1.8182,-1.8177,-1.8127,-1.8089,-1.8108,-1.8074,-1.8026,-1.8031,-1.8002,-1.8,-1.8036,-1.8041,-1.8047,-1.8053,-1.8143,-1.816,-1.8174,0,0,0,0,0,0,-1.8301,-1.824,-1.8207,-1.8238,-1.8216,-1.8166,-1.8188,-1.8146,-1.8134,-1.8127,-1.8064,-1.8055,-1.8082,-1.806,-1.8029,-1.8084,-1.8029,-1.8035,-1.8097,-1.8113,-1.8126,-1.8131,-1.7951,0,0,0,0,0,-1.8326,-1.8329,-1.8276,-1.8308,-1.8298,-1.8245,-1.8242,-1.8205,-1.818,-1.817,-1.8137,-1.8115,-1.8112,-1.8111,-1.8104,-1.8144,-1.8135,-1.8168,-1.8181,-1.8192,-1.8199,-1.822,-1.8235,-1.8077,-1.8077,-1.8077,0,0,-1.8378,-1.8345,-1.8351,-1.8327,-1.8305,-1.8311,-1.8238,-1.8246,-1.825,-1.8171,-1.8187,-1.8163,-1.8134,-1.8164,-1.8175,-1.8146,-1.824,-1.82,-1.8209,-1.821,-1.8228,-1.8243,-1.8256,-1.8081,-1.808,-1.808,0,0,-1.8476,-1.8451,-1.8476,-1.8456,-1.8424,-1.8388,-1.8394,-1.835,-1.8331,-1.8345,-1.8287,-1.829,-1.8285,-1.8268,-1.8258,-1.835,-1.8306,-1.8349,-1.8417,-1.8439,-1.8451,-1.8462,-1.8496,-1.8509,-1.8356,-1.8356,-1.8356,0,-1.8545,-1.855,-1.8494,-1.8506,-1.8498,-1.8426,-1.8451,-1.8435,-1.8403,-1.8399,-1.8367,-1.836,-1.8335,-1.8361,-1.8383,-1.8377,-1.8383,-1.8355,-1.8454,-1.8464,-1.8473,-1.8505,-1.8518,-1.8361,-1.8361,-1.836,-1.836,0,-1.8637,-1.8642,-1.8665,-1.8637,-1.8631,-1.8649,-1.8596,-1.8597,-1.856,-1.8528,-1.8545,-1.8513,-1.8499,-1.8502,-1.8466,-1.8523,-1.8507,-1.8465,-1.8409,-1.8495,-1.8524,-1.8536,-1.8369,-1.8367,-1.8366,-1.8364,0,0,-1.8797,-1.8736,-1.8746,-1.8732,-1.8692,-1.8695,-1.8711,-1.8697,-1.87,-1.868,-1.8693,-1.869,-1.8652,-1.8641,-1.8602,-1.8621,-1.8698,-1.8577,-1.8575,-1.8602,-1.8761,-1.8794,-1.8809,-1.8668,-1.867,-1.8671,-1.8764,0,-1.8888,-1.8911,-1.8861,-1.8897,-1.8901,-1.8833,-1.8847,-1.8825,-1.8795,-1.8795,-1.8762,-1.8762,-1.871,-1.8703,-1.8718,-1.8685,-1.8729,-1.8677,-1.8681,-1.8681,-1.8692,-1.8824,-1.8859,-1.8947,-1.8775,-1.8776,-1.8778,0,-1.8998,-1.8984,-1.902,-1.8979,-1.8979,-1.8992,-1.8976,-1.8976,-1.895,-1.8927,-1.8915,-1.887,-1.8883,-1.8828,-1.8846,-1.8813,-1.881,-1.8794,-1.8797,-1.8797,-1.8736,-1.8829,-1.8974,-1.8988,-1.8795,-1.8793,-1.8792,0,-1.9113,-1.9103,-1.9124,-1.9114,-1.9066,-1.9077,-1.9057,-1.9028,-1.9023,-1.9009,-1.9006,-1.8994,-1.8988,-1.898,-1.8933,-1.8897,-1.8958,-1.8898,-1.8941,-1.8943,-1.8959,-1.8959,-1.9107,-1.8954,-1.8954,-1.8954,-1.8954,0,-1.9221,-1.9247,-1.9175,-1.9188,-1.9215,-1.9157,-1.9185,-1.9159,-1.9133,-1.9141,-1.9081,-1.9089,-1.9026,-1.9027,-1.8991,-1.9013,-1.901,-1.8993,-1.8983,-1.8999,-1.9002,-1.8999,-1.8992,-1.8957,-1.8957,-1.8956,-1.8955,0,-1.9355,-1.9307,-1.9326,-1.9279,-1.9267,-1.929,-1.9249,-1.926,-1.9226,-1.9237,-1.9236,-1.9184,-1.9183,-1.9134,-1.9123,-1.9098,-1.9137,-1.9115,-1.9146,-1.914,-1.9186,-1.9183,-1.934,-1.9358,-1.9192,-1.9193,-1.9195,0,-1.9428,-1.9446,-1.9401,-1.9401,-1.9385,-1.9386,-1.9381,-1.9325,-1.9322,-1.9294,-1.9308,-1.9302,-1.9295,-1.9296,-1.9258,-1.925,-1.9228,-1.9283,-1.9227,-1.9243,-1.9232,-1.9232,-1.9234,-1.9296,-1.9298,-1.93,-1.9301,0,-1.9564,-1.954,-1.9534,-1.9522,-1.9518,-1.9505,-1.9488,-1.9493,-1.9431,-1.9431,-1.9429,-1.9423,-1.9412,-1.9408,-1.9392,-1.9373,-1.9328,-1.9319,-1.9329,-1.9347,-1.9366,-1.9358,-1.9181,-1.9317,-1.9315,-1.9314,-1.9313,-1.9312,-1.9671,-1.9684,-1.9655,-1.9651,-1.9633,-1.9619,-1.9627,-1.9595,-1.9592,-1.9579,-1.9545,-1.9549,-1.9523,-1.9497,-1.9482,-1.9485,-1.9457,-1.9471,-1.9475,-1.948,-1.949,-1.9363,-1.9481,-1.9481,-1.948,-1.948,-1.948,0,-1.9805,-1.9783,-1.978,-1.9759,-1.9757,-1.9713,-1.9693,-1.9695,-1.9699,-1.9678,-1.9671,-1.967,-1.9666,-1.9627,-1.9618,-1.9628,-1.9608,-1.9628,-1.9628,-1.9624,-1.9514,-1.9507,-1.9645,-1.9645,-1.9645,-1.9645,-1.9645,-1.9645,-1.9875,-1.9896,-1.9869,-1.988,-1.9857,-1.9861,-1.9853,-1.9841,-1.9824,-1.9825,-1.9821,-1.9795,-1.9767,-1.9756,-1.975,-1.9739,-1.974,-1.9768,-1.975,-1.9648,-1.9632,-1.9617,-1.961,-1.9768,-1.9768,-1.9861,-1.9862,-1.9862]},{"header":{"parameterUnit":"m.s-1","parameterCategory":1,"la1":30.2991,"la2":30.254,"lo1":-89.0895,"lo2":-89.0444,"dy":0.0017,"dx":0.0017,"nx":28,"ny":28,"refTime":"2024-10-20T21:00:00:Z","depth":0,"parameterNumber":3,"parameterNumberName":"V-component_of_WINDS"},"data":[0,0,0,0,0,0,0,0,0,0,0,0,0,0,0,0,0,0,0,0,0,0,0,0,0,0,0,0,0,0,0,0,0,0,0,0,0,0,0,0,0,0,0,0,0,0,0,0,0,0,0,0,0,0,0,0,0,0,-0.7027,-0.7027,0,-0.7016,-0.7016,-0.7016,-0.6983,-0.6982,-0.6982,-0.6981,-0.697,-0.697,-0.6971,0,0,0,0,0,0,0,0,0,0,0,0,0,-0.7019,-0.702,-0.7027,-0.7027,-0.7027,-0.7016,-0.7016,-0.7016,-0.6983,-0.6982,-0.6982,-0.6981,-0.697,-0.697,-0.6971,0,0,0,0,0,0,0,0,0,0,0,0,0,-0.7017,-0.702,-0.7027,-0.7009,-0.7007,-0.7016,-0.7016,-0.7016,-0.6984,-0.6982,-0.6981,-0.698,-0.697,-0.697,-0.6971,-0.6996,0,0,-0.6973,-0.6973,0,0,0,0,0,0,0,0,-0.7017,-0.7017,-0.7012,-0.701,-0.7008,-0.7,-0.7009,-0.7009,-0.6984,-0.6993,-0.6981,-0.698,-0.6981,-0.6981,-0.6981,-0.6996,-0.6995,-0.6973,-0.6973,-0.6973,-0.6974,0,0,0,0,0,0,0,-0.7017,-0.7018,-0.7023,-0.7012,-0.701,-0.7002,-0.7,-0.7009,-0.6993,-0.6992,-0.6989,-0.6989,-0.698,-0.698,-0.698,-0.6995,-0.6973,-0.6973,-0.6974,-0.6974,-0.7032,-0.7033,0,0,0,0,0,0,-0.702,-0.7018,-0.7023,-0.7022,-0.701,-0.7003,-0.7001,-0.7004,-0.6993,-0.699,-0.6989,-0.6987,-0.698,-0.698,-0.698,-0.7011,-0.6973,-0.6974,-0.6974,-0.7031,-0.7032,-0.7033,0,0,0,0,0,0,-0.702,-0.7021,-0.7023,-0.702,-0.7019,-0.7004,-0.7007,-0.7004,-0.7005,-0.6991,-0.6988,-0.6993,-0.6979,-0.6979,-0.6993,-0.701,-0.6974,-0.6975,-0.7029,-0.7031,-0.7033,-0.7071,0,0,0,0,0,0,-0.702,-0.7021,-0.703,-0.702,-0.702,-0.7037,-0.7008,-0.7005,-0.7006,-0.7003,-0.6994,-0.6991,-0.6978,-0.6992,-0.6993,-0.701,-0.6975,-0.7028,-0.703,-0.7032,-0.7069,-0.7074,-0.7079,0,0,0,0,0,-0.702,-0.7041,-0.7031,-0.7032,-0.7031,-0.7038,-0.7037,-0.7022,-0.7007,-0.7017,-0.7008,-0.6991,-0.7007,-0.6994,-0.6995,-0.7012,-0.7027,-0.7029,-0.7032,-0.7066,-0.7073,-0.7079,0,0,0,0,0,0,-0.7054,-0.704,-0.7028,-0.7047,-0.7044,-0.7032,-0.7044,-0.703,-0.7031,-0.7028,-0.7008,-0.7007,-0.7024,-0.7018,-0.7004,-0.7037,-0.7014,-0.7017,-0.704,-0.7046,-0.7052,-0.7054,-0.6976,0,0,0,0,0,-0.7064,-0.707,-0.7057,-0.7075,-0.7074,-0.7059,-0.7061,-0.705,-0.7046,-0.7045,-0.7037,-0.7034,-0.7038,-0.7041,-0.7044,-0.7067,-0.7066,-0.7079,-0.7084,-0.7089,-0.7093,-0.7106,-0.7113,-0.7042,-0.7042,-0.7042,0,0,-0.7084,-0.7077,-0.7082,-0.7082,-0.7078,-0.7086,-0.7058,-0.7067,-0.7073,-0.7046,-0.7059,-0.7053,-0.7048,-0.7067,-0.7075,-0.7064,-0.7111,-0.7092,-0.7096,-0.7097,-0.711,-0.7116,-0.7122,-0.7044,-0.7044,-0.7044,0,0,-0.7125,-0.7119,-0.7135,-0.7132,-0.7127,-0.7117,-0.712,-0.7111,-0.7106,-0.7119,-0.7099,-0.7106,-0.7113,-0.7111,-0.7111,-0.7152,-0.7138,-0.7154,-0.7182,-0.7196,-0.7202,-0.7207,-0.7224,-0.723,-0.7157,-0.7157,-0.7157,0,-0.7151,-0.7162,-0.7144,-0.7156,-0.7157,-0.7132,-0.7148,-0.7145,-0.7142,-0.7143,-0.713,-0.714,-0.7135,-0.7154,-0.7164,-0.7164,-0.7169,-0.7156,-0.7202,-0.7207,-0.7211,-0.7228,-0.7234,-0.7159,-0.7159,-0.7159,-0.7158,0,-0.7196,-0.7204,-0.7216,-0.7215,-0.7216,-0.723,-0.7214,-0.7219,-0.7207,-0.7198,-0.7213,-0.7205,-0.7208,-0.721,-0.7198,-0.7229,-0.7222,-0.7205,-0.7183,-0.722,-0.7236,-0.7241,-0.7162,-0.7161,-0.7161,-0.716,0,0,-0.726,-0.7248,-0.7253,-0.7253,-0.7245,-0.7251,-0.7263,-0.7266,-0.7271,-0.7269,-0.728,-0.7287,-0.7272,-0.7272,-0.7259,-0.7271,-0.7307,-0.7253,-0.7253,-0.7266,-0.7343,-0.7357,-0.7365,-0.7296,-0.7297,-0.7298,-0.7344,0,-0.7302,-0.7323,-0.7307,-0.7332,-0.734,-0.7316,-0.7327,-0.7324,-0.7317,-0.7322,-0.7313,-0.732,-0.7298,-0.7299,-0.7309,-0.7301,-0.7323,-0.7297,-0.7308,-0.7309,-0.7314,-0.7372,-0.7388,-0.7431,-0.735,-0.735,-0.7351,0,-0.7353,-0.7355,-0.738,-0.7373,-0.7375,-0.7386,-0.7388,-0.7393,-0.7389,-0.7383,-0.7383,-0.7368,-0.738,-0.7356,-0.7373,-0.7356,-0.7359,-0.7356,-0.7357,-0.736,-0.7335,-0.738,-0.7445,-0.7453,-0.736,-0.7359,-0.7358,0,-0.7402,-0.7409,-0.7426,-0.7426,-0.7417,-0.7425,-0.7421,-0.7416,-0.7419,-0.742,-0.7422,-0.7424,-0.7426,-0.7428,-0.7414,-0.7398,-0.7435,-0.7409,-0.7431,-0.7432,-0.7443,-0.7443,-0.7513,-0.744,-0.744,-0.744,-0.7439,0,-0.7452,-0.7469,-0.7448,-0.7459,-0.7478,-0.7459,-0.7478,-0.7472,-0.7468,-0.7477,-0.7456,-0.7465,-0.7444,-0.7452,-0.744,-0.7458,-0.7458,-0.7455,-0.7452,-0.7459,-0.746,-0.7463,-0.7461,-0.7441,-0.7441,-0.7441,-0.744,0,-0.751,-0.7496,-0.7514,-0.7504,-0.7501,-0.7516,-0.7507,-0.7517,-0.7507,-0.752,-0.7522,-0.7507,-0.7515,-0.75,-0.7505,-0.7498,-0.7524,-0.7515,-0.7526,-0.7524,-0.7549,-0.7548,-0.7626,-0.7636,-0.7554,-0.7555,-0.7555,0,-0.7545,-0.7558,-0.7549,-0.7554,-0.7552,-0.756,-0.7563,-0.7545,-0.7549,-0.7546,-0.7557,-0.7563,-0.7567,-0.758,-0.757,-0.7575,-0.7567,-0.7594,-0.7568,-0.7575,-0.7572,-0.7573,-0.7575,-0.7601,-0.7602,-0.7602,-0.7603,0,-0.7609,-0.7601,-0.7607,-0.7611,-0.7615,-0.7617,-0.7617,-0.7622,-0.7603,-0.7609,-0.7616,-0.762,-0.7626,-0.7633,-0.7634,-0.7631,-0.7615,-0.7611,-0.7617,-0.7626,-0.7633,-0.7633,-0.7544,-0.761,-0.7609,-0.7609,-0.7608,-0.7608,-0.7658,-0.767,-0.7666,-0.7673,-0.7671,-0.7672,-0.7682,-0.7674,-0.768,-0.7684,-0.7672,-0.7683,-0.768,-0.7681,-0.7679,-0.7688,-0.7676,-0.7684,-0.7687,-0.769,-0.7695,-0.7629,-0.7687,-0.7687,-0.7687,-0.7687,-0.7687,0,-0.7724,-0.772,-0.7727,-0.7729,-0.7735,-0.7718,-0.7717,-0.7723,-0.7734,-0.7731,-0.7736,-0.7746,-0.7753,-0.7743,-0.7748,-0.7757,-0.775,-0.7759,-0.776,-0.776,-0.7704,-0.77,-0.7765,-0.7765,-0.7765,-0.7765,-0.7765,-0.7765,-0.7759,-0.7779,-0.7771,-0.7789,-0.7785,-0.7796,-0.7798,-0.7799,-0.7797,-0.781,-0.7815,-0.7809,-0.7804,-0.7809,-0.7814,-0.7811,-0.7816,-0.7828,-0.7823,-0.7771,-0.7764,-0.7757,-0.7753,-0.7829,-0.7829,-0.7879,-0.788,-0.788]}]]